1483732801.08,31233,4.38,72434.8,-29.39,-60.03,-60.61,0,*65
1483732802.36,31234,4.44,72434.0,-29.41,-60.11,-60.61,0,*6E
1483732803.62,31235,4.44,72434.3,-29.41,-59.79,-60.37,0,*68
1483732804.86,31236,4.44,72428.8,-29.41,-59.87,-60.45,0,*6F
1483732806.11,31237,4.44,72424.8,-29.41,-59.87,-60.45,0,*6E
1483732807.37,31238,4.44,72432.0,-29.41,-59.79,-60.37,0,*65
1483732808.66,31239,4.44,72452.5,-29.39,-59.55,-60.11,0,*61
1483732809.96,31240,4.44,72428.3,-29.39,-59.63,-60.11,0,*6A
1483732811.26,31241,4.38,72428.5,-29.39,-59.63,-60.11,0,*6B
1483732812.56,31242,4.44,72434.0,-29.39,-59.63,-60.11,0,*68
1483732813.83,31243,4.44,72448.0,-29.39,-59.79,-60.45,0,*63
1483732815.12,31244,4.44,72442.0,-29.39,-59.63,-60.19,0,*66
1483732816.42,31245,4.44,72428.5,-29.39,-59.55,-60.11,0,*6A
1483732817.69,31246,4.44,72434.8,-29.39,-59.87,-60.45,0,*67
1483732818.95,31247,4.44,72436.5,-29.39,-59.87,-60.45,0,*66
1483732820.23,31248,4.44,72438.0,-29.39,-59.87,-60.37,0,*6C
1483732821.49,31249,4.38,72436.0,-29.39,-59.87,-60.45,0,*68
1483732822.76,31250,4.44,72444.0,-29.39,-59.87,-60.45,0,*60
1483732824.04,31251,4.44,72442.5,-29.39,-59.79,-60.37,0,*65
1483732825.34,31252,4.44,72450.0,-29.39,-59.63,-60.37,0,*6D
1483732826.61,31253,4.44,72440.0,-29.39,-59.87,-60.45,0,*63
1483732827.88,31254,4.44,72436.3,-29.39,-59.79,-60.37,0,*60
1483732829.15,31255,4.44,72440.8,-29.39,-59.79,-60.19,0,*6D
1483732830.42,31256,4.44,72440.8,-29.39,-59.79,-60.37,0,*62
1483732831.69,31257,4.44,72432.8,-29.39,-59.87,-60.45,0,*67
1483732832.97,31258,4.44,72450.3,-29.39,-59.79,-60.37,0,*6C
1483732834.24,31259,4.44,72448.3,-29.39,-59.79,-60.37,0,*6D
1483732835.51,31260,4.44,72436.3,-29.39,-59.87,-60.37,0,*66
1483732836.79,31261,4.44,72444.8,-29.39,-59.87,-60.61,0,*64
1483732838.06,31262,4.44,72444.3,-29.39,-59.87,-60.69,0,*6F
1483732839.33,31263,4.44,72442.5,-29.41,-60.11,-60.69,0,*64
1483732840.61,31264,4.44,72456.5,-29.39,-60.03,-60.61,0,*67
1483732841.9,31265,4.44,72440.0,-29.39,-59.55,-60.19,0,*60
1483732843.18,31266,4.44,72436.0,-29.39,-59.87,-60.37,0,*60
1483732844.48,31267,4.44,72448.0,-29.43,-60.11,-60.69,0,*62
1483732845.73,31268,4.44,72438.5,-29.41,-60.03,-60.45,0,*62
1483732846.98,31269,4.44,72430.8,-29.41,-60.03,-60.45,0,*63
1483732848.26,31270,4.44,72432.3,-29.41,-60.11,-60.61,0,*6E
1483732849.52,31271,4.44,72436.8,-29.41,-60.03,-60.61,0,*6C
1483732850.77,31272,4.44,72440.3,-29.41,-60.03,-60.61,0,*6F
1483732852.02,31273,4.44,72440.5,-29.41,-60.03,-60.69,0,*66
1483732853.3,31274,4.44,72444.8,-29.41,-60.11,-60.69,0,*62
1483732854.58,31275,4.44,72444.0,-29.41,-60.11,-60.61,0,*6B
1483732855.87,31276,4.44,72444.3,-29.41,-60.11,-60.61,0,*68
1483732857.14,31277,4.44,72448.5,-29.41,-59.63,-60.19,0,*69
1483732858.42,31278,4.44,72448.8,-29.43,-59.87,-60.45,0,*67
1483732859.67,31279,4.38,72448.0,-29.41,-59.79,-60.45,0,*65
1483732860.97,31280,4.44,72450.5,-29.43,-60.11,-60.69,0,*6B
1483732862.25,31281,4.44,72450.3,-29.43,-59.87,-60.27,0,*65
1483732863.51,31282,4.44,72446.8,-29.41,-60.03,-60.61,0,*60
1483732864.78,31283,4.44,72444.5,-29.41,-60.11,-60.69,0,*6A
1483732866.03,31284,4.44,72434.8,-29.41,-60.03,-60.45,0,*60
1483732867.29,31285,4.44,72440.5,-29.41,-60.03,-60.61,0,*67
1483732868.6,31286,4.44,72430.0,-29.43,-60.19,-60.77,0,*6A
1483732869.84,31287,4.44,72428.3,-29.41,-59.87,-60.45,0,*65
1483732871.15,31288,4.38,72426.5,-29.43,-59.63,-60.19,0,*6B
1483732872.45,31289,4.44,72426.3,-29.43,-59.71,-60.27,0,*64
1483732873.67,31290,4.44,72440.3,-29.41,-59.13,-59.79,0,*6B
1483732874.97,31291,4.44,72442.8,-29.43,-59.47,-60.11,0,*6D
1483732876.22,31292,4.44,72438.8,-29.41,-59.13,-59.63,0,*62
1483732877.47,31293,4.44,72444.3,-29.41,-58.81,-59.37,0,*68
1483732878.74,31294,4.44,72436.0,-29.41,-59.55,-60.11,0,*69
1483732880.01,31295,4.44,72434.5,-29.41,-59.55,-60.19,0,*60
1483732881.26,31296,4.44,72430.0,-29.41,-59.79,-60.45,0,*64
1483732882.48,31297,4.44,72434.8,-29.41,-59.37,-59.87,0,*6B
1483732883.76,31298,4.44,72432.8,-29.41,-59.63,-60.37,0,*64
1483732884.98,31299,4.44,72432.5,-29.41,-59.29,-59.87,0,*6A
1483732886.26,31300,4.44,72434.5,-29.41,-59.63,-60.11,0,*60
1483732887.55,31301,4.44,72434.3,-29.41,-59.63,-60.37,0,*65
1483732888.82,31302,4.44,72436.8,-29.41,-59.55,-60.19,0,*6F
1483732890.13,31303,4.44,72438.8,-29.43,-59.63,-60.19,0,*69
1483732891.37,31304,4.44,72424.5,-29.41,-59.05,-59.87,0,*61
1483732892.6,31305,4.44,72440.0,-29.39,-59.37,-59.87,0,*6E
1483732893.84,31306,4.44,72426.0,-29.39,-59.37,-60.03,0,*6B
1483732895.08,31307,4.44,72432.3,-29.39,-59.37,-60.03,0,*6A
1483732896.34,31308,4.38,72436.3,-29.39,-59.55,-60.03,0,*61
1483732897.63,31309,4.44,72442.5,-29.39,-59.63,-60.11,0,*66
1483732898.87,31310,4.44,72436.8,-29.39,-59.37,-60.03,0,*6C
1483732900.11,31311,4.44,72438.0,-29.39,-59.37,-60.03,0,*6D
1483732901.35,31312,4.44,72448.5,-29.39,-59.37,-60.03,0,*6E
1483732902.64,31313,4.44,72446.8,-29.39,-59.55,-60.19,0,*60
1483732903.94,31314,4.38,72446.3,-29.39,-59.63,-60.19,0,*62
1483732905.21,31315,4.44,72442.0,-29.39,-59.87,-60.61,0,*66
1483732906.49,31316,4.44,72440.3,-29.39,-59.87,-60.37,0,*66
1483732907.76,31317,4.44,72434.0,-29.39,-59.79,-60.37,0,*66
1483732909.06,31318,4.44,72442.3,-29.39,-59.63,-60.37,0,*62
1483732910.34,31319,4.44,72444.5,-29.39,-59.79,-60.37,0,*68
1483732911.59,31320,4.44,72438.3,-29.41,-59.87,-60.37,0,*6C
1483732912.84,31321,4.44,72434.5,-29.41,-59.87,-60.45,0,*68
1483732914.14,31322,4.44,72438.5,-29.39,-59.63,-60.19,0,*67
1483732915.38,31323,4.44,72446.8,-29.39,-59.37,-60.03,0,*6C
1483732916.67,31324,4.44,72444.8,-29.39,-59.63,-60.19,0,*61
1483732917.94,31325,4.44,72448.3,-29.39,-59.79,-60.19,0,*6B
1483732919.22,31326,4.44,72448.8,-29.39,-59.79,-60.37,0,*64
1483732920.5,31327,4.44,72442.5,-29.41,-59.63,-60.11,0,*65
1483732921.77,31328,4.44,72448.0,-29.41,-59.55,-60.19,0,*67
1483732923.05,31329,4.44,72458.8,-29.41,-59.63,-60.19,0,*63
1483732924.3,31330,4.44,72456.8,-29.41,-59.79,-60.45,0,*69
1483732925.55,31331,4.44,72456.5,-29.41,-59.87,-60.45,0,*69
1483732926.8,31332,4.44,72448.5,-29.41,-59.79,-60.37,0,*6E
1483732928.08,31333,4.44,72452.0,-29.41,-59.63,-60.19,0,*68
1483732929.36,31334,4.38,72446.8,-29.41,-59.55,-60.37,0,*66
1483732930.61,31335,4.44,72454.5,-29.41,-59.87,-60.45,0,*6D
1483732931.86,31336,4.44,72454.0,-29.41,-59.87,-60.45,0,*6E
1483732933.14,31337,4.44,72458.3,-29.43,-59.95,-60.53,0,*69
1483732934.45,31338,4.44,72458.8,-29.43,-60.11,-60.53,0,*60
1483732935.7,31339,4.44,72452.5,-29.41,-59.87,-60.45,0,*61
1483732937.0,31340,4.44,72454.0,-29.43,-60.11,-60.69,0,*66
1483732938.3,31341,4.44,72452.3,-29.43,-60.11,-60.69,0,*67
1483732939.61,31342,4.44,72478.8,-29.43,-60.11,-60.69,0,*64
1483732940.88,31343,4.44,72466.8,-29.43,-59.87,-60.45,0,*6E
1483732942.19,31344,4.44,72456.0,-29.43,-60.11,-60.77,0,*6D
1483732943.46,31345,4.44,72464.8,-29.43,-59.95,-60.45,0,*6B
1483732944.75,31346,4.44,72462.5,-29.43,-59.87,-60.53,0,*6C
1483732946.05,31347,4.44,72452.0,-29.43,-59.71,-60.45,0,*63
1483732947.32,31348,4.44,72446.3,-29.43,-59.87,-60.45,0,*65
1483732948.6,31349,4.44,72450.3,-29.43,-59.95,-60.69,0,*69
1483732949.88,31350,4.38,72454.8,-29.43,-59.87,-60.53,0,*6B
1483732951.16,31351,4.44,72448.5,-29.43,-59.95,-60.53,0,*69
1483732952.43,31352,4.44,72446.0,-29.47,-59.95,-60.53,0,*6E
1483732953.71,31353,4.44,72450.0,-29.47,-59.87,-60.53,0,*6C
1483732955.01,31354,4.44,72446.3,-29.47,-60.11,-60.77,0,*68
1483732956.3,31355,4.44,72448.5,-29.49,-60.27,-61.03,0,*60
1483732957.6,31356,4.44,72450.3,-29.47,-60.19,-60.77,0,*62
1483732958.9,31357,4.44,72446.5,-29.47,-60.11,-60.77,0,*6B
1483732960.2,31358,4.44,72446.3,-29.47,-60.11,-60.69,0,*6B
1483732961.49,31359,4.44,72462.8,-29.47,-60.11,-60.69,0,*6A
1483732962.76,31360,4.44,72438.5,-29.47,-59.87,-60.45,0,*6B
1483732964.04,31361,4.44,72444.0,-29.47,-59.95,-60.53,0,*6E
1483732965.31,31362,4.38,72434.5,-29.47,-59.95,-60.77,0,*6B
1483732966.57,31363,4.44,72438.0,-29.49,-60.03,-60.53,0,*67
1483732967.84,31364,4.44,72432.5,-29.47,-59.87,-60.45,0,*6F
1483732969.11,31365,4.44,72448.8,-29.47,-59.95,-60.69,0,*63
1483732970.4,31366,4.44,72442.5,-29.49,-60.19,-60.85,0,*62
1483732971.68,31367,4.44,72440.0,-29.49,-60.19,-60.77,0,*6E
1483732972.97,31368,4.44,72444.8,-29.49,-60.19,-60.85,0,*6C
1483732974.23,31369,4.44,72444.5,-29.49,-59.95,-60.53,0,*68
1483732975.49,31370,4.44,72444.5,-29.49,-59.79,-60.53,0,*62
1483732976.75,31371,4.44,72446.0,-29.49,-59.79,-60.61,0,*62
1483732978.01,31372,4.44,72444.8,-29.49,-60.03,-60.61,0,*66
1483732979.27,31373,4.44,72442.3,-29.49,-59.95,-60.61,0,*62
1483732980.52,31374,4.44,72440.5,-29.49,-59.95,-60.77,0,*62
1483732981.81,31375,4.44,72444.3,-29.49,-60.19,-60.77,0,*6D
1483732983.1,31376,4.44,72438.0,-29.49,-60.27,-60.85,0,*6E
1483732984.35,31377,4.44,72436.8,-29.49,-60.03,-60.77,0,*64
1483732985.64,31378,4.44,72438.5,-29.51,-59.95,-60.53,0,*61
1483732986.92,31379,4.44,72442.5,-29.51,-60.03,-60.61,0,*64
1483732988.2,31380,4.44,72438.3,-29.51,-60.03,-60.61,0,*62
1483732989.48,31381,4.44,72440.5,-29.51,-59.95,-60.53,0,*67
1483732990.73,31382,4.38,72442.8,-29.53,-59.79,-60.77,0,*62
1483732992.01,31383,4.44,72444.3,-29.51,-60.03,-60.61,0,*61
1483732993.3,31384,4.44,72444.5,-29.51,-60.03,-60.85,0,*6C
1483732994.55,31385,4.44,72442.8,-29.53,-60.03,-60.77,0,*62
1483732995.8,31386,4.38,72438.8,-29.53,-60.03,-60.61,0,*66
1483732997.06,31387,4.44,72444.5,-29.53,-59.95,-60.61,0,*62
1483732998.31,31388,4.44,72446.5,-29.53,-59.95,-60.53,0,*6C
1483732999.59,31389,4.44,72444.0,-29.51,-60.03,-60.61,0,*6B
1483733000.88,31390,4.44,72456.0,-29.53,-60.27,-60.77,0,*60
1483733002.13,31391,4.38,72450.0,-29.53,-59.95,-60.61,0,*65
1483733003.4,31392,4.44,72454.8,-29.55,-59.87,-60.45,0,*65
1483733004.71,31393,4.44,72442.0,-29.55,-60.11,-60.61,0,*67
1483733005.99,31394,4.38,72436.5,-29.55,-60.03,-60.61,0,*63
1483733007.29,31395,4.38,72438.5,-29.55,-59.63,-60.27,0,*6C
1483733008.57,31396,4.44,72434.5,-29.55,-60.03,-60.69,0,*69
1483733009.87,31397,4.44,72432.8,-29.55,-60.27,-60.93,0,*6B
1483733011.15,31398,4.44,72434.0,-29.55,-59.87,-60.61,0,*69
1483733012.43,31399,4.38,72428.0,-29.55,-59.87,-60.61,0,*68
1483733013.73,31400,4.38,72424.5,-29.55,-59.63,-60.27,0,*67
1483733015.01,31401,4.38,72428.0,-29.55,-60.03,-60.61,0,*68
1483733016.29,31402,4.44,72424.0,-29.55,-59.87,-60.61,0,*6D
1483733017.57,31403,4.38,72426.0,-29.55,-59.79,-60.37,0,*6E
1483733018.87,31404,4.44,72430.5,-29.55,-59.55,-60.27,0,*66
1483733020.17,31405,4.44,72432.3,-29.55,-59.55,-60.11,0,*62
1483733021.41,31406,4.38,72434.3,-29.59,-59.29,-60.03,0,*65
1483733022.72,31407,4.44,72440.0,-29.55,-59.63,-60.37,0,*61
1483733024.0,31408,4.44,72446.0,-29.59,-59.29,-60.11,0,*68
1483733025.24,31409,4.44,72444.8,-29.55,-59.29,-60.03,0,*66
1483733026.48,31410,4.44,72438.3,-29.55,-59.37,-59.87,0,*67
1483733027.78,31411,4.44,72430.0,-29.55,-59.55,-60.11,0,*67
1483733029.05,31412,4.44,72414.3,-29.55,-59.37,-60.11,0,*60
1483733030.29,31413,4.44,72416.3,-29.55,-59.29,-60.03,0,*6D
1483733031.6,31414,4.38,72418.0,-29.55,-59.55,-60.27,0,*67
1483733032.83,31415,4.44,72428.3,-29.53,-59.47,-60.03,0,*65
1483733034.05,31416,4.38,72432.8,-29.53,-59.29,-60.03,0,*6E
1483733035.27,31417,4.44,72434.0,-29.53,-59.21,-59.79,0,*60
1483733036.52,31418,4.44,72436.3,-29.53,-59.29,-60.19,0,*6B
1483733037.74,31419,4.38,72440.5,-29.53,-59.29,-60.03,0,*61
1483733038.95,31420,4.38,72440.8,-29.53,-59.29,-60.03,0,*6B
1483733040.17,31421,4.44,72438.3,-29.53,-59.21,-59.79,0,*65
1483733041.45,31422,4.44,72436.8,-29.53,-59.55,-60.19,0,*69
1483733042.75,31423,4.38,72440.8,-29.51,-59.71,-60.27,0,*61
1483733043.99,31424,4.38,72418.8,-29.51,-59.29,-60.03,0,*6D
1483733045.27,31425,4.44,72444.8,-29.53,-59.55,-60.19,0,*6E
1483733046.55,31426,4.44,72448.8,-29.53,-59.71,-60.27,0,*66
1483733047.85,31427,4.38,72432.5,-29.51,-59.71,-60.19,0,*68
1483733049.12,31428,4.44,72428.8,-29.53,-59.47,-60.19,0,*60
1483733050.36,31429,4.44,72434.3,-29.53,-59.47,-60.03,0,*6A
1483733051.63,31430,4.44,72432.0,-29.53,-59.71,-60.19,0,*6C
1483733052.85,31431,4.38,72436.8,-29.53,-59.21,-59.79,0,*64
1483733054.1,31432,4.44,72434.8,-29.51,-59.29,-59.95,0,*6F
1483733055.34,31433,4.38,72444.3,-29.53,-59.47,-60.03,0,*61
1483733056.59,31434,4.38,72438.3,-29.51,-59.29,-59.95,0,*69
1483733057.83,31435,4.44,72440.0,-29.51,-59.29,-59.95,0,*68
1483733059.13,31436,4.44,72428.8,-29.51,-59.55,-60.19,0,*6E
1483733060.41,31437,4.44,72430.3,-29.53,-59.55,-60.19,0,*6D
1483733061.69,31438,4.44,72438.5,-29.53,-59.55,-60.27,0,*6F
1483733062.96,31439,4.38,72444.0,-29.53,-59.55,-60.19,0,*63
1483733064.27,31440,4.44,72464.0,-29.51,-59.55,-60.27,0,*62
1483733065.57,31441,4.44,72442.0,-29.51,-59.55,-60.27,0,*63
1483733066.79,31442,4.44,72444.5,-29.53,-59.29,-60.03,0,*6F
1483733068.09,31443,4.44,72440.8,-29.51,-59.55,-60.27,0,*61
1483733069.37,31444,4.44,72456.0,-29.51,-59.79,-60.37,0,*69
1483733070.68,31445,4.44,72456.0,-29.51,-59.71,-60.27,0,*61
1483733071.92,31446,4.44,72456.3,-29.51,-59.29,-60.03,0,*69
1483733073.2,31447,4.44,72464.5,-29.53,-59.55,-60.19,0,*6A
1483733074.48,31448,4.38,72454.0,-29.51,-58.97,-59.29,0,*61
1483733075.78,31449,4.44,72450.5,-29.51,-59.71,-60.27,0,*6D
1483733077.08,31450,4.44,72448.3,-29.51,-59.55,-60.19,0,*6E
1483733078.35,31451,4.44,72440.0,-29.51,-59.71,-60.03,0,*62
1483733079.65,31452,4.44,72450.5,-29.51,-59.55,-60.19,0,*6C
1483733080.96,31453,4.44,72470.8,-29.51,-59.71,-60.37,0,*67
1483733082.22,31454,4.44,72460.8,-29.51,-59.47,-60.03,0,*62
1483733083.49,31455,4.44,72448.8,-29.51,-59.47,-59.79,0,*64
1483733084.79,31456,4.44,72448.0,-29.51,-59.55,-60.19,0,*68
1483733086.06,31457,4.44,72454.5,-29.51,-59.55,-60.03,0,*62
1483733087.33,31458,4.44,72448.5,-29.51,-59.47,-59.95,0,*6B
1483733088.61,31459,4.44,72440.0,-29.53,-59.55,-60.27,0,*68
1483733089.91,31460,4.44,72436.5,-29.51,-59.55,-60.19,0,*6D
1483733091.15,31461,4.44,72424.0,-29.53,-59.21,-59.71,0,*69
1483733092.4,31462,4.38,72412.5,-29.51,-59.29,-59.95,0,*6A
1483733093.64,31463,4.44,72412.3,-29.51,-59.29,-60.03,0,*6E
1483733094.86,31464,4.44,72412.0,-29.53,-59.21,-59.79,0,*64
1483733096.13,31465,4.38,72412.5,-29.51,-59.55,-60.03,0,*63
1483733097.43,31466,4.44,72412.5,-29.51,-59.55,-60.27,0,*66
1483733098.7,31467,4.44,72424.0,-29.51,-59.47,-60.03,0,*62
1483733099.99,31468,4.38,72416.8,-29.51,-58.81,-59.47,0,*6C
1483733101.26,31469,4.44,72420.0,-29.51,-58.73,-59.47,0,*60
1483733102.55,31470,4.38,72420.0,-29.51,-58.81,-59.55,0,*66
1483733103.78,31471,4.44,72426.0,-29.49,-58.73,-59.29,0,*68
1483733105.06,31472,4.44,72426.5,-29.49,-58.97,-59.55,0,*6A
1483733106.3,31473,4.38,72418.5,-29.49,-59.05,-59.79,0,*6F
1483733107.53,31474,4.44,72432.5,-29.49,-59.29,-59.95,0,*64
1483733108.76,31475,4.38,72432.0,-29.47,-59.21,-59.87,0,*60
1483733110.02,31476,4.44,72434.8,-29.47,-59.13,-59.71,0,*6B
1483733111.25,31477,4.44,72432.8,-29.49,-59.29,-59.95,0,*67
1483733112.48,31478,4.44,72440.8,-29.47,-59.13,-59.87,0,*6C
1483733113.78,31479,4.44,72436.8,-29.47,-58.97,-59.63,0,*6A
1483733115.07,31480,4.38,72432.8,-29.47,-58.97,-59.47,0,*6A
1483733116.33,31481,4.38,72436.0,-29.47,-58.73,-59.47,0,*61
1483733117.57,31482,4.44,72450.0,-29.47,-58.73,-59.37,0,*65
1483733118.86,31483,4.38,72436.8,-29.47,-58.89,-59.47,0,*66
1483733120.16,31484,4.44,72446.8,-29.43,-58.89,-59.47,0,*65
1483733121.43,31485,4.44,72456.5,-29.43,-58.97,-59.87,0,*67
1483733122.7,31486,4.44,72448.8,-29.43,-59.13,-59.71,0,*60
1483733123.92,31487,4.44,72446.8,-29.41,-59.13,-59.79,0,*6B
1483733125.19,31488,4.38,72442.8,-29.43,-58.89,-59.87,0,*65
1483733126.43,31489,4.44,72446.0,-29.43,-59.13,-59.87,0,*66
1483733127.73,31490,4.44,72452.3,-29.43,-59.71,-60.27,0,*6A
1483733128.98,31491,4.44,72444.5,-29.43,-59.21,-59.95,0,*6D
1483733130.22,31492,4.44,72454.0,-29.41,-59.21,-60.11,0,*6A
1483733131.53,31493,4.38,72452.8,-29.43,-59.63,-60.27,0,*6A
1483733132.81,31494,4.44,72450.8,-29.43,-59.37,-60.11,0,*69
1483733134.11,31495,4.44,72444.3,-29.43,-59.63,-60.45,0,*68
1483733135.42,31496,4.38,72466.3,-29.43,-59.63,-60.19,0,*62
1483733136.7,31497,4.44,72448.3,-29.43,-59.37,-60.11,0,*6A
1483733137.97,31498,4.44,72454.8,-29.43,-59.37,-60.19,0,*6D
1483733139.26,31499,4.44,72454.8,-29.47,-59.47,-60.19,0,*6F
1483733140.56,31500,4.44,72466.8,-29.47,-59.47,-60.11,0,*66
1483733141.85,31501,4.44,72454.8,-29.47,-59.47,-60.11,0,*67
1483733143.15,31502,4.38,72450.3,-29.47,-59.63,-60.19,0,*6A
1483733144.44,31503,4.38,72462.5,-29.47,-59.71,-60.19,0,*68
1483733145.72,31504,4.38,72458.0,-29.47,-59.87,-60.27,0,*6B
1483733146.98,31505,4.44,72456.8,-29.49,-59.95,-60.53,0,*64
1483733148.23,31506,4.38,72456.0,-29.49,-59.79,-60.61,0,*64
1483733149.53,31507,4.44,72454.0,-29.47,-59.63,-60.19,0,*6F
1483733150.84,31508,4.44,72462.8,-29.47,-59.63,-60.37,0,*6C
1483733152.11,31509,4.44,72454.3,-29.47,-59.87,-60.53,0,*65
1483733153.37,31510,4.38,72456.8,-29.49,-59.95,-60.37,0,*62
1483733154.63,31511,4.38,72440.5,-29.49,-60.03,-60.53,0,*64
1483733155.92,31512,4.44,72440.3,-29.49,-60.19,-60.61,0,*6D
1483733157.17,31513,4.38,72440.5,-29.49,-59.95,-60.37,0,*61
1483733158.43,31514,4.38,72438.3,-29.49,-59.79,-60.37,0,*64
1483733159.71,31515,4.44,72444.5,-29.49,-59.47,-60.27,0,*69
1483733160.95,31516,4.38,72432.0,-29.47,-59.21,-59.87,0,*64
1483733162.22,31517,4.38,72436.5,-29.49,-59.05,-59.71,0,*64
1483733163.51,31518,4.38,72438.8,-29.47,-58.97,-59.47,0,*6A
1483733164.77,31519,4.38,72436.5,-29.47,-58.97,-59.87,0,*67
1483733166.0,31520,4.38,72446.3,-29.49,-59.29,-59.95,0,*64
1483733167.23,31521,4.44,72442.5,-29.47,-59.21,-59.87,0,*60
1483733168.45,31522,4.38,72444.8,-29.49,-59.21,-59.79,0,*6C
1483733169.73,31523,4.38,72434.8,-29.49,-58.97,-59.71,0,*69
1483733170.99,31524,4.38,72432.5,-29.47,-58.97,-59.87,0,*69
1483733172.22,31525,4.44,72438.3,-29.47,-59.21,-59.87,0,*64
1483733173.5,31526,4.38,72436.8,-29.47,-59.37,-60.11,0,*65
1483733174.76,31527,4.44,72442.8,-29.47,-59.21,-60.11,0,*63
1483733176.0,31528,4.44,72446.3,-29.47,-59.21,-59.95,0,*6A
1483733177.29,31529,4.44,72436.5,-29.47,-59.47,-60.11,0,*6D
1483733178.6,31530,4.44,72436.3,-29.47,-59.63,-60.27,0,*66
1483733179.89,31531,4.38,72434.8,-29.47,-59.47,-60.19,0,*6C
1483733181.18,31532,4.38,72438.0,-29.47,-59.47,-60.27,0,*62
1483733182.48,31533,4.38,72438.0,-29.47,-59.71,-60.19,0,*6B
1483733183.77,31534,4.38,72432.0,-29.47,-59.47,-60.11,0,*61
1483733185.07,31535,4.38,72438.5,-29.47,-59.63,-60.11,0,*66
1483733186.31,31536,4.38,72438.3,-29.47,-59.13,-59.87,0,*67
1483733187.6,31537,4.38,72444.8,-29.47,-58.97,-59.71,0,*62
1483733188.82,31538,4.38,72442.0,-29.49,-59.21,-59.95,0,*65
1483733190.06,31539,4.38,72444.0,-29.47,-59.21,-59.95,0,*6A
1483733191.29,31540,4.38,72442.5,-29.47,-59.21,-59.95,0,*64
1483733192.53,31541,4.38,72440.8,-29.47,-59.37,-59.95,0,*62
1483733193.83,31542,4.38,72442.3,-29.47,-59.47,-60.11,0,*60
1483733195.13,31543,4.38,72444.3,-29.47,-59.63,-60.19,0,*6F
1483733196.43,31544,4.38,72452.3,-29.47,-59.63,-60.19,0,*68
1483733197.72,31545,4.44,72452.0,-29.47,-59.63,-60.19,0,*69
1483733199.02,31546,4.38,72446.0,-29.47,-59.47,-60.19,0,*6C
1483733200.3,31547,4.44,72452.0,-29.49,-59.71,-60.37,0,*6A
1483733201.56,31548,4.38,72444.0,-29.49,-59.79,-60.37,0,*6D
1483733202.85,31549,4.44,72452.5,-29.47,-59.47,-60.27,0,*6E
1483733204.14,31550,4.44,72448.3,-29.49,-59.55,-60.27,0,*6B
1483733205.42,31551,4.44,72446.0,-29.49,-59.71,-60.37,0,*6D
1483733206.71,31552,4.38,72444.8,-29.47,-59.47,-60.11,0,*61
1483733207.97,31553,4.44,72444.8,-29.49,-59.79,-60.37,0,*67
1483733209.23,31554,4.38,72440.8,-29.49,-59.95,-60.53,0,*60
1483733210.49,31555,4.38,72444.0,-29.49,-59.79,-60.53,0,*63
1483733211.79,31556,4.44,72446.5,-29.47,-59.63,-60.27,0,*66
1483733213.07,31557,4.38,72444.3,-29.49,-59.71,-60.37,0,*6B
1483733214.36,31558,4.44,72444.0,-29.49,-59.71,-60.37,0,*64
1483733215.61,31559,4.38,72436.0,-29.49,-59.79,-60.27,0,*6C
1483733216.87,31560,4.38,72438.0,-29.49,-60.03,-60.61,0,*63
1483733218.13,31561,4.44,72440.8,-29.49,-59.95,-60.61,0,*67
1483733219.39,31562,4.44,72460.0,-29.49,-59.79,-60.53,0,*67
1483733220.65,31563,4.38,72436.0,-29.49,-59.79,-60.53,0,*66
1483733221.9,31564,4.38,72430.8,-29.49,-59.79,-60.53,0,*61
1483733223.21,31565,4.44,72438.5,-29.51,-59.71,-60.27,0,*62
1483733224.51,31566,4.38,72438.3,-29.51,-59.71,-60.27,0,*61
1483733225.8,31567,4.38,72444.8,-29.51,-59.79,-60.37,0,*69
1483733227.1,31568,4.44,72438.8,-29.51,-59.71,-60.37,0,*6E
1483733228.36,31569,4.38,72438.3,-29.53,-59.79,-60.37,0,*65
1483733229.64,31570,4.44,72440.3,-29.51,-59.79,-60.37,0,*6F
1483733230.92,31571,4.38,72428.3,-29.51,-59.79,-60.37,0,*6E
1483733232.2,31572,4.38,72430.5,-29.51,-59.95,-60.61,0,*6C
1483733233.48,31573,4.38,72428.8,-29.51,-59.79,-60.37,0,*6C
1483733234.76,31574,4.38,72446.3,-29.51,-59.79,-60.27,0,*6A
1483733236.04,31575,4.38,72426.5,-29.53,-59.71,-60.27,0,*61
1483733237.34,31576,4.38,72448.3,-29.51,-59.47,-60.19,0,*68
1483733238.58,31577,4.38,72442.5,-29.53,-59.47,-59.95,0,*65
1483733239.82,31578,4.44,72432.8,-29.53,-59.47,-60.03,0,*6F
1483733241.09,31579,4.38,72438.5,-29.53,-59.47,-60.19,0,*65
1483733242.39,31580,4.44,72440.8,-29.51,-59.55,-60.27,0,*6F
1483733243.7,31581,4.38,72442.5,-29.51,-59.55,-60.19,0,*63
1483733244.94,31582,4.44,72450.3,-29.51,-59.29,-60.03,0,*60
1483733246.24,31583,4.38,72424.0,-29.51,-59.05,-59.71,0,*60
1483733247.53,31584,4.38,72434.0,-29.51,-59.05,-59.71,0,*67
1483733248.77,31585,4.38,72436.0,-29.51,-59.29,-60.03,0,*67
1483733250.07,31586,4.38,72430.8,-29.51,-59.47,-60.19,0,*67
1483733251.37,31587,4.38,72440.3,-29.51,-59.55,-60.19,0,*65
1483733252.65,31588,4.44,72440.8,-29.51,-59.79,-60.27,0,*69
1483733253.89,31589,4.38,72436.0,-29.51,-59.21,-60.03,0,*63
1483733255.2,31590,4.38,72430.8,-29.51,-59.71,-60.27,0,*68
1483733256.51,31591,4.38,72446.5,-29.51,-59.55,-60.37,0,*6E
1483733257.77,31592,4.38,72448.5,-29.51,-59.47,-60.03,0,*69
1483733259.05,31593,4.38,72442.0,-29.51,-59.29,-60.19,0,*6B
1483733260.32,31594,4.38,72446.3,-29.53,-59.47,-60.19,0,*66
1483733261.6,31595,4.44,72458.3,-29.51,-59.21,-60.19,0,*65
1483733262.89,31596,4.38,72440.8,-29.51,-59.47,-60.19,0,*66
1483733264.2,31597,4.38,72438.8,-29.51,-59.55,-60.19,0,*64
1483733265.49,31598,4.38,72448.0,-29.51,-59.47,-60.19,0,*68
1483733266.77,31599,4.38,72448.8,-29.51,-59.79,-60.19,0,*64
1483733268.05,31600,4.38,72440.0,-29.51,-59.79,-60.37,0,*6B
1483733269.33,31601,4.38,72440.0,-29.53,-59.55,-60.37,0,*66
1483733270.61,31602,4.38,72454.8,-29.51,-59.79,-60.61,0,*6A
1483733271.87,31603,4.38,72448.8,-29.53,-59.79,-60.53,0,*68
1483733273.17,31604,4.38,72438.8,-29.51,-59.71,-60.27,0,*66
1483733274.42,31605,4.44,72446.8,-29.51,-59.29,-59.95,0,*69
1483733275.72,31606,4.44,72448.3,-29.51,-59.55,-60.27,0,*62
1483733277.0,31607,4.44,72444.8,-29.53,-59.71,-60.27,0,*67
1483733278.28,31608,4.38,72448.3,-29.53,-59.71,-60.27,0,*68
1483733279.59,31609,4.38,72442.3,-29.51,-59.71,-60.37,0,*6A
1483733280.87,31610,4.38,72446.8,-29.53,-59.71,-60.37,0,*60
1483733282.15,31611,4.44,72450.3,-29.53,-59.71,-60.37,0,*61
1483733283.43,31612,4.44,72448.3,-29.51,-59.79,-60.53,0,*6A
1483733284.68,31613,4.38,72444.8,-29.53,-59.79,-60.53,0,*69
1483733285.94,31614,4.38,72446.3,-29.53,-59.95,-60.61,0,*6D
1483733287.22,31615,4.38,72448.3,-29.51,-60.03,-60.53,0,*6A
1483733288.48,31616,4.38,72440.8,-29.53,-60.03,-60.53,0,*6B
1483733289.75,31617,4.38,72446.3,-29.55,-60.03,-60.61,0,*6D
1483733291.03,31618,4.38,72446.0,-29.53,-59.47,-60.27,0,*6C
1483733292.31,31619,4.38,72446.5,-29.53,-59.71,-60.27,0,*68
1483733293.59,31620,4.38,72438.3,-29.53,-59.55,-60.37,0,*65
1483733294.87,31621,4.38,72434.8,-29.53,-59.71,-60.37,0,*62
1483733296.15,31622,4.44,72446.5,-29.53,-59.55,-60.27,0,*66
1483733297.45,31623,4.44,72444.8,-29.55,-59.55,-60.27,0,*61
1483733298.72,31624,4.38,72446.0,-29.59,-59.79,-60.45,0,*60
1483733300.0,31625,4.38,72444.8,-29.53,-59.71,-60.27,0,*67
1483733301.27,31626,4.38,72456.8,-29.55,-59.87,-60.45,0,*6F
1483733302.58,31627,4.38,72454.0,-29.55,-60.11,-60.61,0,*6D
1483733303.89,31628,4.38,72442.5,-29.55,-59.63,-60.37,0,*6E
1483733305.16,31629,4.38,72442.5,-29.55,-59.37,-60.11,0,*6A
1483733306.44,31630,4.38,72440.3,-29.53,-59.55,-60.19,0,*68
1483733307.65,31631,4.38,72448.5,-29.53,-59.21,-59.79,0,*66
1483733308.96,31632,4.38,72438.3,-29.55,-59.63,-60.27,0,*64